Regional Weather Roundup
Issued by NWS Upton, NY

Current Version | Previous Version | Text Only | Print | Product List | Glossary Off
Versions: 1 2 3 4 5 6 7 8 9 10 11 12 13 14 15 16 17 18 19 20 21 22 23 24 25 26 27 28 29 30 31 32 33 34 35 36 37 38 39 40 41 42 43 44 45 46 47 48 49
000 ASUS41 KOKX 030204 RWROKX REGIONAL WEATHER ROUNDUP NATIONAL WEATHER SERVICE NEW YORK NY 1000 PM EDT WED SEP 02 2015 NOTE: "FAIR" INDICATES FEW OR NO CLOUDS BELOW 12,000 FEET WITH NO SIGNIFICANT WEATHER AND/OR OBSTRUCTIONS TO VISIBILITY. NYZ071-072-176-178-NJZ106-104-030300- NEW YORK CITY METRO AREA CITY SKY/WX TMP DP RH WIND PRES REMARKS CENTRAL PARK CLEAR 79 68 69 CALM 29.93S LAGUARDIA APRT PTCLDY 79 69 71 S9 29.89S KENNEDY INTL PTCLDY 77 72 84 S9 29.92R NEWARK/LIBERTY PTCLDY 80 70 71 S3 29.89S BRNX BOT. GARD N/A 75 68 78 E3 29.92S TETERBORO CLEAR 80 67 64 S3 29.88S $$ NYZ177-179-078>081-030300- LONG ISLAND NEW YORK CITY SKY/WX TMP DP RH WIND PRES REMARKS FARMINGDALE CLEAR 77 66 68 SW6 29.91S ISLIP MOCLDY 75 66 73 SW8 29.90S SHIRLEY CLEAR 75 68 78 SW6 29.92S WESTHAMPTON CLEAR 73 71 93 SW5 29.93S MONTAUK POINT N/A 74 69 85 S5 29.93S $$ NYZ052-065-067-030300- HUDSON VALLEY CITY SKY/WX TMP DP RH WIND PRES REMARKS WHITE PLAINS PTCLDY 72 64 76 CALM 29.91S NEWBURGH CLEAR 75 66 73 NW5 29.92R MONTGOMERY CLEAR 72 66 81 CALM 29.90S POUGHKEEPSIE PTCLDY 73 67 81 CALM 29.89R ALBANY PTCLDY 77 64 64 CALM 29.89F $$ NJZ001-105-106-008-010-013-015-019>022-104-030300- NEW JERSEY CITY SKY/WX TMP DP RH WIND PRES REMARKS NEWARK/LIBERTY PTCLDY 80 70 71 S3 29.89S TETERBORO CLEAR 80 67 64 S3 29.88S CALDWELL CLEAR 77 67 71 CALM 29.90S MORRISTOWN NOT AVBL SOMERVILLE CLEAR 73 67 81 CALM 29.88S SUSSEX CLEAR 69 66 90 CALM 29.92S ANDOVER N/A 69 68 96 CALM 29.93S TRENTON CLEAR 78 71 79 S5 29.90R MILLVILLE CLEAR 75 71 87 CALM 29.92S ATLANTIC CITY CLEAR 76 73 91 CALM 29.92S WRIGHTSTOWN PTCLDY 75 72 90 S6 29.89R TOMS RIVER CLEAR 73 72 94 SW3 29.92S BELMAR CLEAR 75 66 73 SW5 29.91S $$ PAZ047>061-062-071-030300- EASTERN PENNSYLVANIA CITY SKY/WX TMP DP RH WIND PRES REMARKS PHILADELPHIA CLEAR 80 68 66 S8 29.91R ALLENTOWN CLEAR 76 65 68 CALM 29.92R SCRANTON CLEAR 73 63 70 E7 29.95S $$ CTZ002-004>006-009-010-012-RIZ004-006-007-MAZ004-011-015-030300- SOUTHERN NEW ENGLAND IN CT CITY SKY/WX TMP DP RH WIND PRES REMARKS BRADLEY INTL CLEAR 74 66 76 S8 29.88S HARTFORD CLEAR 76 66 71 S6 29.89R DANBURY PTCLDY 73 62 68 CALM 29.93S WTRBRY/OXFORD CLEAR 73 61 64 SW3 29.95S BRIDGEPORT CLEAR 78 67 68 SW6 29.91R MERIDEN CLEAR 72 64 76 CALM 29.90S NEW HAVEN PTCLDY 76 66 71 S6 29.91S CHESTER NOT AVBL GROTON CLEAR 73 68 84 SW7 29.90S WILLIMANTIC CLEAR 75 65 70 CALM 29.91R IN RI CITY SKY/WX TMP DP RH WIND PRES REMARKS PROVIDENCE CLEAR 74 63 68 SW9 29.90S BLOCK ISLAND CLEAR 72 70 94 SW13 29.92S WESTERLY CLEAR 73 67 81 SW6 29.92S IN MA CITY SKY/WX TMP DP RH WIND PRES REMARKS BOSTON CLEAR 77 67 71 SW6 29.87S WORCESTER CLEAR 74 62 66 W9 29.92F WESTFIELD CLEAR 69 66 90 CALM 29.89S PROVINCETOWN N/A 72 63 73 S9 29.88F NANTUCKET CLEAR 70 68 93 SW6 29.91F $$ ANZ330-335-338-340-345-350-353-355-030300- COASTAL MARINE OBSERVATIONS STATION/POSITION TIME SKY/WX TEMP WIND PRES VSBY WAVE AIR SEA DIR/SP/G HT/PER (UTC) (F) (DEG/KT/KT) (MB) (MI) (FT/S) NY HARB ENTRANCE 0050 77 77 190/ 12/ 14 1012.2 2/ 4 4S FIRE IS NOT AVBL 20S FIRE ISLAND 0050 76 75 200/ 8/ 10 1012.6 2/ 8 GREAT SOUTH BAY 0100 77 80 240/ 8/ 12 N/A 23SW MTP 0150 74 73 230/ 8/ 8 1012.6 2/ 7 HUDSON CANYON NOT AVBL KINGS POINT 0100 76 190/ 9/ 11 1011.8 EXECUTION ROCKS 0100 77 180/ 10/ 14 N/A CENTRAL LI SOUND NOT AVBL EASTERN LI SOUND 0100 74 71 230/ 6/ 8 N/A ROBBINS REEF 0100 150/ 7/ 8 1011.3 $$ >>>>>>>>>>>>>>>>>>>>>>>>>>>> KEY <<<<<<<<<<<<<<<<<<<<<<<<<<< > < > SKY/WX - SKY CONDITION/PRESENT WEATHER < > TMP - TEMPERATURE IN FAHRENHEIT < > DP - DEWPOINT IN FAHRENHEIT < > RH - RELATIVE HUMIDITY IN PERCENT < > WIND - DIRECTION AND SPEED IN MPH < > PRES - MEAN SEA LEVEL PRESSURE IN INCHES OF HG < > WCI - WIND CHILL INDEX < > VSB - VISIBILITY IN MILES < > HX - HEAT INDEX < > TC - TEMPERATURE IN CELSIUS < > VRB - VARIABLE WIND DIRECTION < > < >>>>>>>>>>>>>>>>>>>>>>>>>>>> KEY <<<<<<<<<<<<<<<<<<<<<<<<<<<

USA.gov is the U.S. government's official web portal to all federal, state and local government web resources and services.